Flag for U.S.A. Weather past 2 weeks in San Bernardino, California, U.S.A.

Now
80 °F

Sunny.


Feels Like: 81 °F
Forecast: 62 / 88 °F
Wind: No wind

Location: Riverside Municipal Airport

Current Time: Aug 22, 2014 at 11:43:17 AM

Latest Report: Aug 22, 2014 at 10:53 AM


Visibility: 10 mi

Pressure: 29.93 "Hg

Humidity: 54%

Dew point: 62 °F

Location of San BernardinoLocation

Historic Weather in San Bernardino — Graph

°F

San Bernardino temperature yesterday

Maximum temperature yesterday: 91 °F (at 2:53 PM)
Minimum temperature yesterday: 64 °F (at 6:53 AM)
Average temperature yesterday: 75 °F

Past Weeks' High & Low Weather Summary

 TemperatureHumidityPressure
High98 °F (Aug 15, 2:53 PM)90% (Aug 8, 3:53 AM)29.97 "Hg (Aug 8, 3:53 AM)
Low63 °F (Aug 8, 3:53 AM)17% (Aug 16, 9:53 AM)29.72 "Hg (Aug 18, 3:53 PM)
Average77 °F56%29.88 "Hg
* Reported Aug 7 9:53 AM — Aug 22 9:53 AM, San Bernardino, Weather by CustomWeather, © 2014

Note: Actual official high and low records may vary slightly from our data, if they occured in-between our weather recording intervals... More about our weather records

Advertising

San Bernardino weather history for previous 24 hours

 ConditionsComfort  
Time TempWeatherWind HumidityBarometerVisibility
9:53 AM
Aug 22
76 °FSunny.3 mph62%29.93 "Hg9 mi
8:53 AM73 °FSunny.6 mph69%29.93 "Hg9 mi
7:53 AM71 °FSunny.No wind73%29.92 "Hg10 mi
6:53 AM68 °FClear.No wind82%29.91 "Hg10 mi
5:53 AM67 °FClear.No wind81%29.89 "Hg10 mi
4:53 AM68 °FClear.No wind78%29.90 "Hg10 mi
3:53 AM69 °FClear.3 mph76%29.90 "Hg10 mi
2:53 AM70 °FClear.No wind73%29.90 "Hg10 mi
1:53 AM71 °FClear.No wind71%29.90 "Hg10 mi
12:53 AM72 °FClear.No wind68%29.91 "Hg10 mi
11:53 PM
Aug 21
72 °FClear.3 mph68%29.92 "Hg10 mi
10:53 PM73 °FClear.5 mph66%29.92 "Hg10 mi
9:53 PM73 °FClear.3 mph66%29.92 "Hg10 mi
8:53 PM76 °FClear.5 mph60%29.90 "Hg10 mi
7:53 PM78 °FScattered clouds.3 mph56%29.89 "Hg10 mi
6:53 PM81 °FSunny.12 mph51%29.83 "Hg10 mi
5:53 PM84 °FSunny.14 mph46%29.82 "Hg10 mi
4:53 PM88 °FSunny.15 mph40%29.81 "Hg10 mi
3:53 PM90 °FSunny.9 mph38%29.81 "Hg10 mi
2:53 PM91 °FSunny.7 mph34%29.83 "Hg10 mi
1:53 PM88 °FSunny.No wind36%29.86 "Hg10 mi
12:53 PM85 °FSunny.5 mph42%29.88 "Hg10 mi
11:53 AM81 °FScattered clouds.No wind49%29.90 "Hg10 mi
Weather by CustomWeather, © 2014

See weather overviewHow to use our weather pages